TimeMST,TemperatureF,Dew PointF,Humidity,Sea Level PressureIn,VisibilityMPH,Wind Direction,Wind SpeedMPH,Gust SpeedMPH,PrecipitationIn,Events,Conditions,WindDirDegrees,DateUTC
12:53 AM,23.0,12.9,65,29.83,10.0,West,3.5,-,N/A,,Clear,260,2013-02-23 07:53:00
1:53 AM,25.0,12.9,60,29.81,10.0,WSW,4.6,-,N/A,,Clear,250,2013-02-23 08:53:00
2:53 AM,19.0,12.0,74,29.80,10.0,SSE,3.5,-,N/A,,Clear,160,2013-02-23 09:53:00
3:53 AM,21.0,10.9,65,29.78,10.0,Calm,Calm,-,N/A,,Clear,0,2013-02-23 10:53:00
4:53 AM,16.0,9.0,74,29.78,10.0,NNE,3.5,-,N/A,,Clear,30,2013-02-23 11:53:00
5:53 AM,25.0,12.9,60,29.75,10.0,Variable,3.5,-,N/A,,Clear,0,2013-02-23 12:53:00
6:53 AM,15.1,10.0,80,29.79,10.0,Calm,Calm,-,N/A,,Clear,0,2013-02-23 13:53:00
7:53 AM,28.9,16.0,58,29.75,10.0,West,6.9,-,N/A,,Clear,280,2013-02-23 14:53:00
8:53 AM,37.0,19.9,50,29.74,10.0,WNW,11.5,-,N/A,,Clear,300,2013-02-23 15:53:00
9:53 AM,39.9,18.0,41,29.74,10.0,WNW,8.1,-,N/A,,Clear,290,2013-02-23 16:53:00
10:53 AM,43.0,17.1,35,29.70,10.0,West,21.9,31.1,N/A,,Scattered Clouds,280,2013-02-23 17:53:00
11:53 AM,46.9,19.9,34,29.68,10.0,West,16.1,20.7,N/A,,Clear,280,2013-02-23 18:53:00
12:53 PM,46.0,17.1,31,29.65,10.0,West,18.4,27.6,N/A,,Partly Cloudy,280,2013-02-23 19:53:00
1:53 PM,46.9,17.1,30,29.62,10.0,West,15.0,-,N/A,,Clear,280,2013-02-23 20:53:00
2:53 PM,48.0,18.0,30,29.63,10.0,West,15.0,21.9,N/A,,Mostly Cloudy,270,2013-02-23 21:53:00
3:53 PM,44.1,18.0,35,29.64,10.0,West,11.5,-,N/A,,Clear,280,2013-02-23 22:53:00
4:53 PM,43.0,18.0,37,29.68,10.0,WNW,9.2,-,N/A,,Overcast,300,2013-02-23 23:53:00
5:53 PM,39.9,19.0,43,29.67,10.0,NNW,5.8,-,N/A,,Overcast,330,2013-02-24 00:53:00
6:53 PM,37.0,19.9,50,29.73,10.0,North,10.4,-,N/A,,Overcast,360,2013-02-24 01:53:00
7:53 PM,35.1,21.0,57,29.72,10.0,Calm,Calm,-,N/A,,Overcast,0,2013-02-24 02:53:00
8:53 PM,35.1,21.9,59,29.72,10.0,West,4.6,-,N/A,,Overcast,270,2013-02-24 03:53:00
9:53 PM,34.0,21.9,61,29.73,10.0,West,6.9,-,N/A,,Overcast,260,2013-02-24 04:53:00
10:53 PM,34.0,25.0,70,29.73,10.0,West,5.8,-,N/A,,Overcast,280,2013-02-24 05:53:00
11:53 PM,32.0,25.0,75,29.74,10.0,NE,4.6,-,N/A,,Overcast,50,2013-02-24 06:53:00